Temp_Advection
nan nan nan nan nan nan nan nan nan nan nan nan nan nan nan nan nan nan nan nan nan nan nan nan nan nan nan nan nan nan nan nan nan nan nan nan nan nan nan nan nan nan nan nan nan
nan 0 0 -0 -0 -0 0 0 -0 0 0 -0 0 0 -0 -0 -0 -0 -0 0 0 0 0 -0 -0 -0 0 -0 0 0 -0 -1 -0 -0 -1 -1 0 -0 -1 -2 -0 0 0 1 nan
nan -0 0 -0 -0 -0 -0 -0 0 0 0 0 -0 0 0 -0 -0 -0 -0 -0 -0 -0 0 0 0 0 0 -0 0 0 -1 -1 -0 -1 -0 -0 0 0 -1 -1 -2 -0 -0 0 nan
nan 0 0 0 0 -0 0 -0 -0 0 -0 0 -0 -0 -0 -0 -0 0 -0 0 -0 -0 0 0 0 0 -0 -0 0 -0 -0 -0 -0 0 -0 -1 0 1 0 -2 -2 -1 -0 -1 nan
nan 1 0 0 0 -0 -0 0 0 0 -0 -0 0 -0 0 -0 -0 -0 -0 -0 -0 -0 0 0 0 0 0 -0 -0 -0 -0 -0 -1 -0 -0 -0 0 0 -0 -2 -3 -3 -0 -1 nan
nan 1 0 0 0 -0 -0 -0 0 0 -0 -0 0 0 0 -0 -0 0 -0 -0 -0 -0 -0 -0 0 0 -0 -0 0 -0 0 -0 -1 -1 -1 -0 0 0 -0 -1 -2 -3 -2 -0 nan
nan 2 1 -0 0 0 -0 0 0 -0 -0 0 0 0 -0 -0 -0 0 0 0 0 0 -0 0 0 -0 -0 0 -0 -0 -0 -0 -1 -1 0 0 0 -0 0 -1 -4 -3 -1 -0 nan
nan 1 2 -1 -0 1 0 -0 -0 -0 0 0 0 -0 -0 -0 -0 -0 0 0 0 0 0 0 0 -0 0 0 -0 -0 -0 -0 -1 -0 -0 -0 -0 -0 0 -0 -1 0 1 2 nan
nan -0 2 1 -1 0 0 0 -0 0 0 0 0 -0 -0 -0 -0 0 0 0 -0 0 0 0 0 0 0 0 -0 -0 -0 -0 -0 -0 -1 0 -0 0 0 -1 -0 0 2 3 nan
nan -1 1 1 -1 -0 0 0 0 0 0 -0 -0 -0 -0 -0 -0 0 0 0 0 -0 -0 -0 -0 -0 -0 0 -0 -0 -0 -0 -0 -0 0 0 -0 0 -0 -0 -1 -0 0 1 nan
nan 0 -0 1 -0 -0 0 0 0 -0 -0 -0 -0 -0 -0 -0 -0 0 0 0 0 0 0 -0 -0 -0 -1 -0 -0 -0 -0 -1 -0 0 -0 -0 -0 0 1 0 -1 -1 -0 0 nan
nan 0 -0 0 0 -0 0 0 0 -0 0 -0 0 -0 -0 0 -0 -0 0 0 0 0 -0 -0 -0 -1 0 0 0 -0 -0 -0 -0 -0 0 -0 0 0 0 -0 -0 -0 -0 -0 nan
nan 1 -1 0 0 0 0 0 0 0 0 -0 -0 0 0 0 -0 -0 -0 0 0 0 0 -0 -0 -0 -0 -0 -0 -0 -0 -0 -0 0 -0 0 -0 -0 -0 -0 -0 0 -1 -1 nan
nan 1 -1 0 0 0 0 0 0 -0 -0 -0 0 0 -0 0 -0 -0 -0 0 0 0 0 -0 -0 -0 0 0 -0 -0 -0 0 0 -0 -0 -0 0 0 -0 -0 -0 0 -0 -0 nan
nan 1 0 0 0 0 -0 0 0 0 0 -0 0 0 -0 -0 -0 -0 -0 0 0 0 -0 0 -0 -0 -0 0 0 -0 0 0 -0 0 0 0 0 -0 0 0 -0 0 -0 -1 nan
nan 1 0 0 -0 0 -0 -0 -0 -1 -0 -0 0 -0 -0 -0 0 -0 -0 -0 0 -0 0 -0 -0 -0 -0 -0 -0 -0 0 -0 -0 -0 0 -0 0 -0 0 -0 -0 -0 0 -1 nan
nan 1 0 -0 -0 0 0 -0 -1 0 0 -0 0 -0 0 -0 -0 -0 -0 -0 -0 -0 -0 -0 -0 0 -0 -0 0 -0 0 -0 0 0 0 -0 0 -0 -0 -0 -0 -0 -0 -0 nan
nan 1 0 -0 0 0 -1 -1 0 -0 -0 -0 -0 -0 -0 -0 0 -0 -0 -0 -0 -0 -0 -0 0 0 0 -0 0 0 -0 0 0 0 0 -0 0 0 0 0 -0 -0 -0 -0 nan
nan 1 -0 0 0 0 -0 -0 -0 -0 -0 0 -0 0 0 -0 0 -0 0 -0 -0 -0 0 0 -0 -0 0 -0 -0 0 0 0 0 -0 0 -0 -0 -0 -0 -0 0 0 -0 -1 nan
nan -0 0 0 0 0 -0 -0 -0 -0 -0 -0 0 -0 -0 -0 -0 -0 0 0 0 -0 0 -0 0 -0 -0 0 0 0 -0 -0 -0 0 0 0 -0 -0 -0 -0 -0 0 0 -0 nan
nan 0 0 0 0 0 0 -0 -0 0 -0 -0 -0 0 -0 -0 -0 -0 -0 -0 0 0 -0 0 0 -0 -0 0 0 0 0 0 -0 0 0 0 -0 0 0 -0 0 0 1 0 nan
nan -0 0 -0 -0 0 -0 -0 -0 0 0 -0 -0 0 0 0 -0 -0 -0 -0 0 -0 0 0 -0 0 -0 -0 -0 0 0 -0 0 -0 -0 0 -0 -0 0 0 0 0 0 0 nan
nan -0 0 -0 -0 -0 -0 0 0 0 0 -0 0 0 -0 -0 -0 -0 0 -0 0 0 0 0 -0 0 -1 -0 -0 -0 -0 -0 -0 0 0 0 -0 0 0 0 0 0 0 0 nan
nan -0 -0 -0 0 -0 0 0 0 0 -0 -0 -0 0 0 -0 -0 -0 -0 -0 0 0 0 -0 -0 -0 -0 -0 0 0 -0 -0 -0 0 0 0 0 0 0 -0 -0 0 0 0 nan
nan -0 -0 0 0 0 0 0 0 0 0 -0 -0 0 0 0 0 -0 -0 -0 -0 -0 -0 -0 -0 0 0 0 -0 0 -0 -0 0 -0 0 -0 0 0 0 0 0 0 0 -0 nan
nan -1 -0 -0 -0 0 0 0 0 0 0 0 0 0 -0 -0 0 0 -0 -0 0 -0 -0 -0 -0 -0 -0 -0 0 -0 0 0 0 0 0 0 0 0 0 -0 -0 -0 -0 -0 nan
nan nan nan nan nan nan nan nan nan nan nan nan nan nan nan nan nan nan nan nan nan nan nan nan nan nan nan nan nan nan nan nan nan nan nan nan nan nan nan nan nan nan nan nan nan
Wind_Speed
20 17 12 12 12 13 16 17 10 15 12 16 14 13 13 13 12 14 14 6 3 4 7 4 5 7 9 10 13 7 5 12 16 14 15 16 5 22 25 22 19 11 6 18 36
19 15 13 12 11 12 14 14 13 15 15 12 13 11 10 10 10 10 5 3 5 8 6 7 9 6 4 3 7 8 7 18 10 12 13 15 17 15 11 19 19 13 9 17 39
18 17 15 11 12 13 12 12 12 15 15 11 11 9 7 7 7 1 3 3 6 8 10 9 8 6 4 5 7 6 15 17 19 18 7 13 15 19 12 10 21 12 17 31 43
18 17 17 13 11 12 10 12 12 14 16 11 9 6 4 4 2 1 2 5 5 8 9 7 5 2 4 6 11 7 12 21 24 10 8 12 15 11 15 22 29 20 21 34 40
22 18 15 13 12 14 9 11 11 12 14 8 5 5 3 3 6 3 3 8 5 6 6 7 8 6 7 5 8 11 7 13 20 26 25 14 14 3 19 35 29 35 28 33 40
21 17 15 14 12 13 10 9 11 13 11 6 4 5 3 3 3 3 5 3 3 5 4 6 6 8 10 9 9 6 11 12 18 21 21 18 5 3 8 31 36 30 32 36 39
21 22 17 14 12 12 8 9 11 13 10 6 3 5 6 10 4 5 7 5 5 5 8 9 7 6 3 5 10 6 8 10 13 21 9 15 13 11 17 20 31 32 32 36 41
21 23 17 14 14 12 8 8 10 9 6 3 5 4 5 3 5 5 3 7 8 6 9 8 6 7 4 4 3 4 5 5 10 18 14 10 11 8 9 23 17 17 35 37 37
21 21 21 14 12 9 7 8 7 5 3 4 3 2 5 3 4 2 6 7 7 9 7 9 9 3 1 3 3 5 6 10 6 19 12 17 6 5 6 25 6 7 14 26 32
22 20 20 14 11 8 7 5 4 2 2 3 3 3 2 3 5 7 7 4 4 4 6 3 3 1 2 3 3 3 3 6 7 12 17 15 10 6 3 17 22 9 11 12 22
22 20 19 14 7 8 3 1 2 2 5 2 2 3 4 9 9 7 6 4 4 2 3 4 3 4 9 8 11 5 7 12 5 5 13 13 8 9 10 15 22 18 15 9 13
16 20 19 12 7 4 4 3 3 1 1 3 8 7 7 6 5 2 2 2 1 2 1 4 4 7 7 5 11 8 9 5 2 5 12 11 6 7 5 7 12 12 20 10 4
23 21 16 10 7 5 3 4 3 6 3 2 1 2 4 6 3 2 3 2 3 1 2 4 5 7 10 5 10 9 5 1 3 6 3 10 5 8 6 7 4 11 21 11 1
17 21 13 7 6 6 3 5 4 7 4 2 1 1 4 4 2 4 2 2 1 1 3 5 5 7 7 6 4 5 7 2 8 2 1 3 2 4 8 7 6 12 17 10 4
18 18 12 9 5 6 3 4 9 4 3 2 1 1 4 3 4 1 5 2 3 2 2 6 4 7 9 4 1 4 6 5 5 4 2 2 3 3 2 3 2 10 8 11 4
22 19 13 13 8 5 5 11 10 6 5 0 3 2 1 3 3 7 3 4 2 2 4 6 3 3 4 3 3 6 3 3 4 1 3 4 1 2 4 3 5 4 9 10 6
16 16 15 10 7 8 13 13 4 4 3 2 2 2 3 4 4 5 4 6 2 4 3 2 2 3 6 2 2 1 1 2 4 4 2 5 4 0 11 8 6 4 7 12 11
16 16 16 11 7 12 18 5 3 4 4 2 3 4 3 4 2 4 5 4 2 2 2 2 3 6 2 1 3 3 2 3 3 2 1 2 3 2 2 9 16 19 15 8 15
14 16 16 12 11 16 6 3 6 5 4 5 3 5 2 1 1 5 1 3 3 4 4 5 4 3 4 2 3 2 3 1 4 2 3 3 4 3 8 8 2 14 21 21 21
20 22 15 14 13 14 4 4 2 4 3 3 4 1 2 1 0 3 3 4 5 3 2 2 2 3 3 2 6 5 1 3 3 3 4 4 4 5 12 11 8 4 12 21 27
30 11 15 15 15 6 3 5 4 3 3 2 3 3 2 2 2 2 4 4 5 6 2 1 3 5 2 5 4 3 3 2 3 2 3 4 0 3 7 6 5 7 6 8 19
25 3 19 20 3 1 3 5 4 3 3 2 3 3 3 2 3 2 1 3 9 3 3 2 3 2 2 1 2 1 2 2 3 2 3 3 4 7 7 7 9 11 11 8 5
17 7 14 19 3 2 2 2 2 3 2 3 2 1 2 2 1 2 3 4 8 5 3 4 3 3 7 4 2 5 4 3 3 2 3 4 2 5 7 7 12 12 12 13 12
11 5 5 11 5 4 5 4 3 3 2 4 3 3 2 1 4 2 2 1 5 7 7 4 3 3 3 3 2 3 4 4 3 3 3 2 2 5 6 7 10 12 13 12 11
9 4 9 5 5 4 3 5 5 4 2 3 2 3 5 3 2 2 1 2 4 9 5 3 4 4 2 4 2 3 3 4 4 2 3 4 3 2 3 4 7 10 13 15 15
11 6 6 3 14 7 4 5 5 3 4 2 3 4 3 4 5 5 3 3 1 5 4 4 2 3 4 6 3 4 6 2 4 3 5 3 4 2 6 10 15 15 13 13 12
8 11 7 2 3 5 5 7 7 8 2 2 7 4 3 3 6 5 3 3 0 2 4 2 1 2 2 4 0 5 5 3 2 3 4 3 1 3 5 7 10 11 11 11 11
Wind_Direction
309 313 302 297 305 305 307 313 303 308 306 308 313 312 299 302 296 287 284 282 253 200 255 280 275 282 281 248 229 219 239 239 239 236 239 206 256 274 257 267 276 201 181 192 173
306 312 306 297 295 295 298 311 313 308 315 314 313 308 302 300 296 290 288 247 265 288 256 284 288 299 269 241 227 199 224 236 245 239 274 259 208 282 321 284 253 213 209 176 175
304 306 304 299 295 294 304 301 307 309 306 319 321 322 319 304 314 288 78 352 312 294 282 286 268 285 242 234 219 218 234 231 253 266 293 263 237 218 314 277 273 219 194 174 179
293 302 306 301 294 293 299 299 299 304 301 313 321 318 304 293 296 142 353 329 299 300 283 271 248 216 248 246 232 247 237 238 247 269 312 308 231 231 243 275 249 258 204 180 174
304 297 299 298 300 295 293 303 300 296 302 311 322 302 285 270 264 245 326 339 327 299 280 268 247 245 248 219 244 249 256 270 255 252 265 286 242 230 238 269 272 255 202 198 184
302 291 294 297 297 291 296 290 297 294 305 292 296 298 248 267 245 266 323 329 343 1 349 295 259 277 284 248 217 240 241 270 262 249 239 267 281 237 236 276 273 245 215 202 201
301 297 290 288 292 294 284 282 287 284 297 269 277 274 264 259 274 268 299 275 284 301 320 329 295 266 297 278 328 288 283 272 244 225 203 255 238 234 229 297 285 231 210 207 204
295 296 282 288 291 291 275 291 285 297 285 236 261 274 259 264 268 291 266 285 278 273 299 318 313 285 243 282 302 288 249 247 226 205 190 212 253 203 195 253 275 207 200 198 195
289 285 292 280 291 290 281 287 297 289 250 215 236 256 281 300 295 293 279 291 286 275 272 297 306 264 265 275 299 203 287 211 233 192 162 210 261 219 174 257 230 57 148 181 185
280 281 290 279 281 278 289 297 270 227 194 173 205 294 265 321 302 278 288 277 308 294 293 320 335 320 286 216 229 290 301 200 241 189 183 215 238 187 150 252 340 354 57 108 170
275 273 287 285 266 278 241 247 178 148 194 194 178 259 283 307 307 269 260 268 296 286 302 14 45 260 259 240 265 273 273 269 237 164 182 208 225 217 243 274 315 331 3 50 120
256 280 275 285 244 241 226 195 206 186 103 241 240 269 300 301 292 20 232 231 244 266 51 350 248 246 302 281 276 242 275 243 304 201 180 174 214 150 180 260 268 333 328 350 96
262 271 266 277 231 207 208 196 251 178 94 232 212 260 293 314 269 303 326 256 228 247 197 204 259 319 287 303 279 250 255 347 199 121 79 144 151 156 195 164 286 339 297 305 320
255 262 263 263 212 209 193 211 196 158 73 252 217 308 320 317 264 322 333 274 327 290 297 245 286 293 293 248 224 264 167 41 148 90 61 315 124 150 159 158 234 233 279 302 256
258 281 253 208 205 183 155 181 157 134 21 257 152 307 13 64 320 11 319 286 241 248 71 265 303 346 311 318 121 317 355 56 19 91 161 66 95 331 116 30 214 234 281 290 224
273 272 233 204 195 185 146 142 136 47 258 250 131 32 18 34 6 315 321 285 289 311 213 238 256 246 282 59 28 300 118 30 28 7 43 348 138 168 157 196 236 104 328 280 245
260 263 222 197 205 165 145 141 39 132 358 263 135 113 114 25 22 5 346 340 35 352 342 293 232 294 227 324 257 262 57 42 25 32 4 321 4 142 200 211 217 180 196 316 256
267 243 206 195 169 159 149 62 120 182 203 197 95 86 79 5 350 323 345 341 220 236 272 340 33 3 1 116 300 57 123 134 133 99 107 11 28 37 21 202 219 231 193 218 223
235 203 199 180 164 159 146 86 211 194 188 149 74 74 98 89 342 30 222 267 241 205 348 4 38 307 17 7 335 74 62 344 133 52 68 321 303 253 7 39 65 214 217 213 232
198 182 186 170 164 163 82 232 188 191 140 106 123 171 122 280 55 12 331 316 326 191 182 354 57 301 319 327 39 27 333 57 354 84 88 6 23 315 343 344 5 64 196 207 227
173 159 173 163 156 160 177 218 208 160 143 147 138 113 127 171 91 78 284 299 349 326 173 332 82 302 21 22 358 14 14 44 104 77 154 129 7 322 311 316 24 43 78 198 219
161 124 162 159 137 241 170 191 154 146 125 107 103 119 143 192 158 111 298 256 336 294 360 332 128 81 256 313 189 157 360 54 89 359 36 100 335 347 333 348 41 49 57 74 103
138 112 164 173 171 235 223 109 117 129 143 136 110 135 220 156 88 86 230 278 346 19 15 348 30 10 347 360 22 48 352 34 72 67 45 101 246 353 16 35 44 47 43 48 54
156 127 145 208 242 162 149 162 122 89 104 101 120 99 141 60 34 145 317 343 353 19 15 29 24 112 160 210 235 14 349 49 82 68 149 119 99 354 6 29 21 30 47 45 40
186 159 171 177 223 178 132 148 142 143 114 127 114 185 163 135 126 131 169 286 25 355 19 57 41 11 323 312 97 26 19 22 55 183 101 173 106 358 348 357 8 29 31 38 36
152 140 142 107 134 117 147 186 147 132 144 184 156 173 146 142 182 183 146 7 193 329 26 7 1 35 6 13 31 76 71 67 62 59 49 75 52 1 40 57 47 36 39 35 25
142 145 134 75 115 114 192 171 172 138 34 159 147 108 106 155 114 108 106 125 93 39 349 36 66 57 316 354 253 23 17 1 338 29 128 63 31 340 24 37 26 22 21 30 26
Height
1505 1504 1501 1501 1502 1501 1501 1498 1495 1492 1490 1487 1485 1485 1484 1483 1482 1482 1480 1481 1480 1481 1482 1483 1484 1483 1483 1483 1484 1485 1484 1476 1472 1474 1469 1466 1475 1473 1471 1471 1469 1463 1464 1463 1469
1503 1501 1499 1498 1499 1498 1498 1496 1495 1492 1487 1484 1482 1482 1482 1480 1480 1480 1480 1478 1479 1480 1480 1481 1481 1481 1481 1481 1480 1481 1478 1470 1467 1468 1467 1469 1472 1476 1473 1469 1463 1462 1462 1462 1466
1502 1499 1496 1495 1495 1495 1495 1493 1492 1491 1487 1483 1481 1480 1481 1480 1480 1479 1479 1478 1479 1480 1479 1479 1479 1480 1480 1479 1477 1474 1470 1466 1464 1467 1465 1466 1467 1473 1474 1470 1463 1460 1461 1462 1464
1499 1496 1494 1492 1492 1492 1491 1490 1489 1489 1484 1482 1481 1480 1479 1481 1483 1479 1479 1479 1479 1478 1478 1478 1478 1479 1479 1476 1474 1473 1465 1466 1462 1464 1466 1467 1465 1465 1472 1471 1464 1461 1458 1462 1461
1496 1493 1491 1490 1489 1489 1486 1487 1486 1486 1482 1480 1480 1479 1479 1481 1479 1479 1479 1478 1477 1477 1477 1476 1476 1476 1475 1473 1471 1467 1464 1462 1462 1464 1463 1467 1464 1464 1466 1465 1463 1461 1458 1459 1459
1492 1490 1487 1487 1485 1486 1484 1483 1483 1483 1479 1479 1478 1478 1480 1482 1478 1478 1478 1477 1477 1476 1475 1474 1474 1473 1471 1469 1468 1464 1462 1459 1458 1459 1460 1463 1462 1462 1456 1463 1460 1459 1455 1454 1459
1488 1487 1484 1483 1481 1481 1481 1480 1480 1479 1477 1477 1477 1477 1479 1479 1478 1477 1476 1476 1476 1475 1474 1473 1472 1471 1468 1467 1467 1463 1462 1458 1451 1454 1457 1463 1460 1458 1453 1457 1456 1452 1451 1453 1454
1485 1484 1482 1480 1477 1477 1478 1477 1476 1476 1475 1475 1475 1477 1476 1476 1476 1475 1475 1474 1473 1473 1472 1471 1470 1469 1467 1467 1464 1464 1459 1453 1441 1446 1451 1457 1448 1453 1451 1461 1462 1448 1446 1449 1452
1480 1480 1478 1477 1474 1474 1474 1474 1474 1474 1473 1474 1475 1476 1476 1475 1475 1474 1474 1473 1472 1471 1470 1469 1468 1467 1467 1466 1467 1461 1451 1448 1438 1436 1442 1454 1444 1445 1448 1461 1455 1450 1445 1444 1448
1476 1475 1475 1473 1472 1471 1471 1472 1472 1473 1473 1474 1475 1479 1476 1475 1474 1473 1472 1471 1471 1469 1469 1468 1468 1468 1467 1465 1482 1459 1449 1443 1435 1430 1435 1444 1444 1444 1447 1463 1449 1452 1446 1443 1446
1470 1473 1472 1471 1470 1469 1470 1471 1475 1473 1473 1473 1475 1473 1473 1473 1471 1471 1471 1470 1470 1469 1469 1469 1474 1476 1465 1459 1459 1456 1455 1447 1429 1423 1432 1439 1441 1439 1447 1457 1455 1448 1445 1446 1448
1467 1469 1471 1469 1469 1467 1468 1469 1469 1471 1471 1472 1473 1472 1471 1471 1471 1470 1469 1470 1469 1470 1469 1474 1474 1461 1458 1455 1454 1451 1449 1436 1427 1431 1433 1439 1441 1443 1450 1449 1456 1444 1445 1446 1449
1462 1469 1470 1468 1468 1466 1465 1468 1468 1470 1471 1474 1472 1471 1471 1471 1470 1469 1469 1468 1467 1468 1469 1473 1463 1459 1457 1454 1451 1443 1444 1438 1430 1428 1432 1438 1442 1443 1445 1447 1438 1436 1448 1446 1446
1462 1470 1469 1466 1469 1464 1464 1465 1468 1469 1486 1475 1472 1472 1471 1470 1470 1468 1468 1469 1467 1467 1468 1469 1461 1459 1452 1453 1450 1447 1439 1435 1427 1430 1429 1443 1441 1443 1448 1446 1443 1452 1446 1443 1447
1462 1465 1467 1465 1463 1463 1465 1465 1468 1471 1505 1473 1472 1470 1471 1471 1471 1468 1468 1466 1466 1467 1471 1472 1462 1457 1452 1446 1447 1442 1439 1438 1438 1439 1440 1442 1441 1444 1437 1435 1443 1449 1439 1442 1445
1458 1464 1466 1464 1462 1462 1463 1466 1470 1489 1501 1474 1470 1470 1471 1471 1471 1469 1467 1466 1466 1466 1466 1466 1461 1460 1454 1448 1448 1446 1441 1439 1439 1440 1445 1440 1436 1444 1446 1444 1442 1436 1435 1443 1444
1455 1460 1464 1463 1461 1461 1463 1468 1487 1499 1476 1474 1470 1471 1472 1472 1471 1471 1470 1468 1469 1471 1466 1459 1457 1456 1454 1450 1449 1449 1447 1451 1455 1458 1446 1442 1438 1437 1439 1434 1433 1434 1437 1438 1444
1452 1457 1461 1462 1460 1461 1464 1472 1495 1474 1478 1466 1468 1471 1475 1473 1476 1472 1473 1474 1468 1467 1469 1459 1455 1452 1452 1452 1449 1449 1451 1456 1443 1442 1446 1445 1446 1443 1441 1438 1432 1436 1442 1448 1448
1448 1456 1460 1460 1460 1462 1466 1490 1476 1474 1465 1467 1471 1483 1468 1475 1473 1477 1481 1474 1468 1465 1459 1461 1459 1454 1450 1451 1451 1449 1451 1454 1453 1454 1461 1459 1450 1442 1439 1438 1439 1438 1439 1445 1445
1444 1456 1458 1459 1460 1464 1469 1467 1466 1463 1462 1465 1478 1468 1477 1473 1472 1475 1479 1466 1465 1463 1463 1463 1478 1458 1453 1453 1452 1450 1454 1455 1455 1455 1452 1457 1455 1456 1448 1445 1442 1440 1443 1449 1451
1446 1455 1455 1458 1462 1465 1474 1468 1462 1460 1461 1464 1467 1470 1472 1468 1472 1482 1479 1468 1464 1461 1460 1461 1465 1462 1456 1458 1458 1454 1453 1452 1454 1463 1458 1464 1465 1455 1453 1448 1444 1443 1448 1450 1453
1444 1451 1453 1457 1463 1464 1466 1459 1458 1460 1461 1463 1465 1467 1466 1468 1470 1482 1478 1472 1465 1463 1462 1462 1468 1476 1460 1458 1457 1457 1457 1456 1465 1461 1479 1479 1468 1453 1449 1444 1443 1446 1451 1451 1450
1440 1448 1454 1456 1462 1464 1457 1457 1457 1459 1461 1463 1466 1466 1467 1466 1472 1469 1478 1468 1465 1464 1465 1464 1472 1493 1474 1464 1458 1460 1459 1457 1465 1470 1468 1475 1474 1461 1458 1457 1454 1455 1455 1453 1451
1434 1446 1453 1454 1453 1454 1456 1457 1459 1459 1460 1462 1466 1467 1467 1467 1471 1473 1477 1468 1466 1465 1463 1462 1463 1474 1482 1471 1469 1472 1463 1464 1472 1476 1472 1480 1469 1469 1467 1466 1464 1463 1461 1456 1454
1427 1432 1435 1445 1449 1450 1451 1455 1457 1459 1460 1461 1465 1466 1469 1473 1471 1472 1476 1468 1467 1466 1464 1465 1472 1465 1462 1460 1463 1465 1466 1464 1475 1468 1477 1468 1467 1469 1467 1465 1462 1459 1456 1456 1456
1420 1425 1432 1437 1439 1446 1449 1454 1454 1458 1459 1462 1464 1465 1467 1470 1472 1473 1470 1470 1477 1469 1468 1468 1474 1473 1472 1466 1464 1469 1470 1468 1467 1466 1466 1468 1466 1462 1461 1460 1461 1461 1460 1460 1460
1416 1419 1423 1437 1441 1445 1449 1451 1452 1455 1460 1460 1462 1466 1468 1469 1469 1470 1471 1472 1472 1473 1472 1470 1476 1479 1477 1471 1467 1477 1472 1470 1467 1466 1469 1467 1469 1467 1467 1466 1466 1465 1465 1464 1464